�������C�����ː����j�^�v���󋵏��
Date,Time,Cs137(Bq/L),Cs134(Bq/L),�S��(Bq/L)
2016/11/27,00:00,0.64,0.081,ND
2016/11/27,00:10,0.61,0.085,ND
2016/11/27,00:20,0.64,0.074,ND
2016/11/27,00:30,0.72,0.038,ND
2016/11/27,00:40,0.71,0.034,ND
2016/11/27,00:50,0.72,0.031,ND
2016/11/27,01:00,0.61,0.076,ND
2016/11/27,01:10,0.61,0.075,ND
2016/11/27,01:20,0.56,0.081,ND
2016/11/27,01:30,0.56,0.081,ND
2016/11/27,01:40,0.56,0.075,ND
2016/11/27,01:50,0.57,0.069,ND
2016/11/27,02:00,0.56,0.073,ND
2016/11/27,02:10,0.53,0.074,ND
2016/11/27,02:20,0.55,0.076,ND
2016/11/27,02:30,0.59,0.065,ND
2016/11/27,02:40,0.61,0.072,ND
2016/11/27,02:50,0.61,0.075,ND
2016/11/27,03:00,0.64,0.079,ND
2016/11/27,03:10,0.75,0.084,ND
2016/11/27,03:20,0.83,0.044,ND
2016/11/27,03:30,0.79,0.077,ND
2016/11/27,03:40,0.80,0.075,ND
2016/11/27,03:50,0.72,0.071,ND
2016/11/27,04:00,0.74,0.072,ND
2016/11/27,04:10,0.77,0.068,ND
2016/11/27,04:20,0.75,0.084,ND
2016/11/27,04:30,0.77,0.080,ND
2016/11/27,04:40,0.78,0.090,ND
2016/11/27,04:50,0.77,0.095,ND
2016/11/27,05:00,0.78,0.090,ND
2016/11/27,05:10,0.79,0.090,ND
2016/11/27,05:20,0.92,0.063,ND
2016/11/27,05:30,0.92,0.066,ND
2016/11/27,05:40,0.89,0.085,ND
2016/11/27,05:50,0.80,0.084,ND
2016/11/27,06:00,0.77,0.080,ND
2016/11/27,06:10,0.77,0.083,ND
2016/11/27,06:20,0.79,0.074,ND
2016/11/27,06:30,0.78,0.076,ND
2016/11/27,06:40,0.78,0.081,ND
2016/11/27,06:50,0.77,0.087,ND
2016/11/27,07:00,0.77,0.10,ND
2016/11/27,07:10,0.75,0.10,ND
2016/11/27,07:20,0.76,0.11,ND
2016/11/27,07:30,0.76,0.12,ND
2016/11/27,07:40,0.75,0.12,ND
2016/11/27,07:50,0.75,0.11,ND
2016/11/27,08:00,0.73,0.11,ND
2016/11/27,08:10,0.72,0.11,ND
2016/11/27,08:20,0.70,0.10,ND
2016/11/27,08:30,0.84,0.076,ND
2016/11/27,08:40,0.86,0.080,ND
2016/11/27,08:50,0.75,0.096,ND
2016/11/27,09:00,0.91,0.074,ND
2016/11/27,09:10,0.91,0.075,ND
2016/11/27,09:20,0.89,0.079,ND
2016/11/27,09:30,0.74,0.097,ND
2016/11/27,09:40,0.71,0.095,ND
2016/11/27,09:50,0.68,0.10,ND
2016/11/27,10:00,0.70,0.084,ND
2016/11/27,10:10,0.71,0.079,ND
2016/11/27,10:20,0.71,0.083,ND
2016/11/27,10:30,0.71,0.084,ND
2016/11/27,10:40,0.73,0.072,ND
2016/11/27,10:50,0.82,0.049,ND
2016/11/27,11:00,0.70,0.090,ND
2016/11/27,11:10,0.68,0.095,ND
2016/11/27,11:20,0.65,0.10,ND
2016/11/27,11:30,0.64,0.11,ND
2016/11/27,11:40,0.62,0.11,ND
2016/11/27,11:50,0.63,0.11,ND
2016/11/27,12:00,0.72,0.083,ND
2016/11/27,12:10,0.60,0.092,ND
2016/11/27,12:20,0.61,0.073,ND
2016/11/27,12:30,0.59,0.068,ND
2016/11/27,12:40,0.60,0.068,ND
2016/11/27,12:50,0.57,0.064,ND
2016/11/27,13:00,0.59,0.057,ND
2016/11/27,13:10,0.57,0.069,ND
2016/11/27,13:20,0.55,0.086,ND
2016/11/27,13:30,0.56,0.088,ND
2016/11/27,13:40,0.56,0.084,ND
2016/11/27,13:50,0.55,0.082,ND
2016/11/27,14:00,0.53,0.088,ND
2016/11/27,14:10,0.68,0.051,ND
2016/11/27,14:20,0.66,0.044,ND
2016/11/27,14:30,0.64,0.052,ND
2016/11/27,14:40,0.61,0.063,9.3
2016/11/27,14:50,0.51,0.079,ND
2016/11/27,15:00,0.51,0.073,ND
2016/11/27,15:10,0.51,0.067,ND
2016/11/27,15:20,0.53,0.066,ND
2016/11/27,15:30,0.53,0.060,ND
2016/11/27,15:40,0.55,0.053,ND
2016/11/27,15:50,0.53,0.072,ND
2016/11/27,16:00,0.53,0.072,ND
2016/11/27,16:10,0.59,0.081,ND
2016/11/27,16:20,0.49,0.089,ND
2016/11/27,16:30,0.50,0.078,ND
2016/11/27,16:40,0.49,0.080,ND
2016/11/27,16:50,0.50,0.067,ND
2016/11/27,17:00,0.48,0.072,ND
2016/11/27,17:10,0.52,0.070,ND
2016/11/27,17:20,0.54,0.070,ND
2016/11/27,17:30,0.63,0.079,ND
2016/11/27,17:40,0.68,0.046,ND
2016/11/27,17:50,0.63,0.079,ND
2016/11/27,18:00,0.65,0.079,ND
2016/11/27,18:10,0.65,0.071,ND
2016/11/27,18:20,0.52,0.076,ND
2016/11/27,18:30,0.55,0.068,ND
2016/11/27,18:40,0.52,0.080,ND
2016/11/27,18:50,0.53,0.076,ND
2016/11/27,19:00,0.55,0.072,ND
2016/11/27,19:10,0.57,0.075,ND
2016/11/27,19:20,0.59,0.058,ND
2016/11/27,19:30,0.59,0.058,ND
2016/11/27,19:40,0.74,0.026,ND
2016/11/27,19:50,0.80,ND,ND
2016/11/27,20:00,0.72,0.047,ND
2016/11/27,20:10,0.71,0.045,ND
2016/11/27,20:20,0.59,0.059,ND
2016/11/27,20:30,0.57,0.057,ND
2016/11/27,20:40,0.57,0.049,ND
2016/11/27,20:50,0.56,0.054,ND
2016/11/27,21:00,0.55,0.067,ND
2016/11/27,21:10,0.56,0.064,ND
2016/11/27,21:20,0.55,0.073,ND
2016/11/27,21:30,0.54,0.079,ND
2016/11/27,21:40,0.55,0.085,ND
2016/11/27,21:50,0.53,0.081,ND
2016/11/27,22:00,0.55,0.073,ND
2016/11/27,22:10,0.54,0.080,ND
2016/11/27,22:20,0.53,0.075,ND
2016/11/27,22:30,0.56,0.061,ND
2016/11/27,22:40,0.53,0.066,ND
2016/11/27,22:50,0.54,0.075,ND
2016/11/27,23:00,0.53,0.068,ND
2016/11/27,23:10,0.53,0.066,ND
2016/11/27,23:20,0.55,0.061,ND
2016/11/27,23:30,0.55,0.069,8.8
2016/11/27,23:40,0.56,0.075,ND
2016/11/27,23:50,0.54,0.074,ND
